Main page
METAR-TAF:

METAR-TAF

Airports :

New Braunfels Regional Airport

New Braunfels, Texas, United States

latitude: 29-42-31N, longitude: 098-02-43W, elevation: 646 ft

Current weather observation

The report was made 35 minutes ago, at 21:51 UTC
Wind 10 mph from the South/Southeast
Temperature 79°F
Humidity 42%
Pressure 29.88 in. Hg
Visibility: 10 miles
Clear sky

METAR: KBAZ 012151Z 15009KT 10SM CLR 26/12 A2988 RMK AO2 SLP113 T02610122

Time: 17:26 (22:26 UTC)


TAF: missing

Weather observations and forecasts of more than 4000 airports (METAR and TAF reports).

The available stations are represented by yellow and red dots on the map.

Hover mouse over dot to see the name of the station.

Then click to see weather observations and forecasts.

To change the map : click on the green buttons with a black cross to zoom in, on the green button with a dash to zoom out, or on the green arrows for adjacent maps.


METAR-TAF: